Theta_e
332 333 333 336 335 334 334 331 330 328 329 328 326 326 325 325 325 326 327 332 332 332 334 337 338 338 338 339 340 342 340 340 336 335 334 331 326 325 317 315 315 308 305
326 328 330 331 333 333 332 332 330 330 328 327 326 325 324 323 322 322 324 326 329 332 334 334 337 338 339 340 339 340 341 341 338 334 335 333 328 323 320 316 313 311 307
324 325 327 330 331 332 332 332 331 330 328 327 326 324 323 322 321 320 320 321 323 325 328 333 335 334 335 337 338 339 340 340 339 335 334 332 326 323 321 317 315 310 310
324 325 326 330 331 331 332 331 331 330 328 327 325 325 324 323 322 322 321 320 321 321 324 327 332 334 335 336 338 340 339 340 339 334 332 329 326 322 320 317 317 314 309
322 322 324 327 333 332 331 330 331 330 329 327 326 326 325 325 324 323 322 321 322 323 325 327 329 332 334 334 335 339 339 338 339 332 331 328 327 324 321 320 318 313 311
320 320 321 321 326 326 327 328 328 329 329 328 328 327 327 326 324 323 322 320 319 320 320 318 319 329 330 334 334 335 336 335 335 332 330 328 326 325 324 322 319 319 314
318 319 320 320 321 322 323 327 329 328 328 328 327 327 327 326 326 325 323 320 319 320 321 321 321 322 329 331 333 335 337 337 335 332 329 328 327 325 324 322 320 320 319
318 318 318 319 320 320 320 322 322 324 325 326 326 326 327 327 327 327 325 322 321 321 322 322 322 324 326 331 332 334 334 336 336 334 330 328 326 325 324 323 321 322 320
316 317 317 318 318 318 319 320 321 323 323 324 324 325 326 326 327 326 325 323 321 321 321 321 322 323 325 328 331 331 332 335 335 335 332 328 326 326 325 325 323 320 318
315 315 315 316 317 318 318 319 319 320 322 323 322 323 324 325 325 324 324 322 321 321 321 321 322 323 324 328 331 332 333 334 333 330 326 325 325 324 324 324 322 318 316
313 313 313 314 314 314 314 316 317 319 319 320 322 322 322 323 324 324 324 323 321 321 321 320 321 320 323 325 327 331 332 332 331 329 326 325 324 324 324 324 321 318 317
311 311 310 310 310 310 311 311 312 314 316 318 318 320 321 320 321 321 322 322 321 320 321 321 321 321 324 329 329 330 331 332 329 326 324 324 324 323 323 323 320 318 316
309 309 309 309 309 309 309 309 309 310 313 314 317 318 319 318 318 317 318 320 319 318 318 318 319 320 320 329 330 330 330 329 324 323 323 322 322 322 320 319 318 317 316
306 306 306 306 305 305 306 307 308 308 309 310 313 315 316 317 318 318 318 316 316 317 317 317 318 319 319 324 329 328 327 323 322 322 322 319 320 318 316 314 313 312 311
303 303 303 302 302 303 303 304 305 306 307 307 309 311 312 315 316 315 315 317 316 320 317 318 319 319 320 320 321 321 320 321 321 320 318 318 317 315 313 312 309 309 308
301 301 301 301 301 301 301 301 301 302 303 304 306 306 307 308 312 312 314 314 312 315 320 321 320 318 317 315 315 317 318 318 318 317 316 316 315 312 310 309 307 306 306
300 300 300 300 300 300 300 300 301 301 302 302 302 303 303 303 304 308 310 311 310 311 316 318 318 317 317 315 315 317 317 317 316 315 314 313 312 311 309 307 305 306 306
300 300 300 301 300 300 300 300 301 301 302 303 304 304 304 305 305 305 307 307 307 309 310 315 316 316 316 316 316 317 316 316 315 314 313 311 310 308 307 306 305 307 306
299 299 300 300 301 301 301 301 301 302 303 303 304 305 307 307 307 307 307 306 308 309 310 310 315 315 315 315 315 316 316 316 315 314 311 310 308 306 305 305 306 305 304
296 297 297 298 299 300 302 303 302 303 303 304 305 305 306 308 308 306 306 305 307 309 311 309 314 314 314 315 315 316 316 315 314 311 310 309 307 306 305 305 305 304 304
296 297 297 298 299 299 300 302 305 304 304 305 306 306 307 309 309 310 309 308 308 309 310 310 314 315 314 315 315 315 315 314 311 310 309 308 306 305 305 305 304 304 304
296 298 299 301 301 301 302 302 303 306 306 306 307 308 309 309 311 311 311 310 309 310 311 312 316 315 314 315 314 314 313 311 310 310 309 307 306 306 305 305 304 304 304
296 297 299 301 303 305 304 304 306 306 307 309 310 311 309 309 311 312 311 311 310 310 312 313 315 315 315 314 314 313 312 311 310 309 308 307 306 306 306 305 304 304 304
297 300 302 305 306 307 307 308 309 309 310 311 313 310 309 308 309 310 310 311 312 313 314 314 314 314 314 313 313 312 312 311 310 309 308 307 307 306 306 305 304 305 304
302 310 312 312 312 310 312 313 315 317 314 311 310 309 310 310 309 309 310 311 312 313 313 313 313 313 313 312 311 311 310 310 309 309 307 307 308 307 306 305 304 305 304
299 303 309 311 313 313 312 311 311 310 310 310 310 310 310 310 310 310 310 310 310 311 311 311 311 311 311 311 310 310 310 310 309 308 308 308 308 307 306 305 305 306 303
Wind_Speed
18 18 18 19 19 17 14 18 20 15 17 15 13 12 12 12 13 13 16 17 21 22 21 22 24 23 20 22 18 20 25 24 11 10 20 27 28 30 27 22 18 17 15
12 19 22 22 20 20 20 19 19 18 17 16 15 14 13 13 14 14 15 17 20 18 24 24 24 21 21 19 21 21 22 23 22 13 22 26 32 31 32 28 23 15 15
17 18 21 25 26 24 25 22 20 19 19 19 18 17 16 15 16 15 16 17 18 22 22 21 26 22 22 22 20 22 22 21 21 16 18 26 30 33 32 28 23 22 16
16 23 21 17 28 29 26 24 22 20 20 20 21 20 18 18 18 18 17 17 17 18 22 23 23 24 26 22 22 23 23 21 21 21 22 28 29 30 33 29 22 25 24
14 17 18 12 15 20 20 19 21 22 23 22 21 21 21 22 22 22 23 23 20 16 17 21 24 22 29 27 25 22 23 22 17 23 22 23 24 28 29 25 22 26 24
13 18 20 20 12 13 18 20 21 22 22 23 23 23 23 24 25 28 26 24 23 21 22 27 29 26 27 24 32 30 26 22 17 20 23 25 26 29 25 28 26 23 10
13 16 18 20 20 17 17 19 25 24 25 27 27 28 28 30 29 30 28 25 25 25 24 24 28 26 26 26 25 23 26 27 26 34 31 32 29 34 31 29 27 26 20
17 18 21 24 24 24 25 26 28 27 28 30 31 32 32 32 31 30 30 31 31 28 25 25 28 29 29 27 25 22 26 25 32 34 35 34 35 37 41 38 35 27 19
20 22 23 25 25 25 26 28 30 30 31 32 32 32 32 32 31 32 32 34 29 26 25 27 30 30 31 31 28 28 24 23 24 38 38 35 39 36 38 30 29 25 18
22 24 24 24 23 24 26 28 28 29 28 28 32 34 33 33 31 31 34 30 26 25 25 27 30 33 33 31 30 30 23 23 26 29 26 30 35 33 35 31 30 26 23
24 24 25 25 24 23 25 26 26 26 26 25 29 33 32 29 27 30 30 31 27 25 25 25 26 30 32 36 36 32 28 30 31 30 32 34 34 33 33 31 32 29 26
24 27 28 28 28 27 28 29 28 27 27 29 31 29 29 29 28 28 28 28 29 27 27 25 25 26 26 26 28 31 31 31 27 27 27 27 30 31 30 35 32 27 24
25 26 27 29 27 27 29 31 31 30 29 29 25 27 29 31 30 35 41 38 39 43 42 36 33 30 33 23 23 22 26 31 29 26 26 27 30 33 26 27 26 24 18
31 32 29 29 31 31 32 31 30 30 30 29 27 26 27 29 28 28 33 40 43 48 48 43 40 36 36 24 22 24 33 32 34 32 29 30 35 33 28 27 26 26 31
30 30 30 30 30 29 31 30 30 32 32 30 29 28 28 26 26 25 23 19 13 18 33 27 24 26 22 20 22 29 29 30 29 28 30 34 33 31 33 27 30 28 22
27 28 29 28 27 27 28 30 34 40 43 42 37 37 31 31 25 22 21 19 17 14 16 18 19 22 21 22 25 26 27 32 30 31 33 37 33 30 32 27 27 26 24
30 31 29 28 27 26 25 25 22 28 34 40 43 48 51 50 45 40 28 27 21 18 17 16 17 20 23 26 27 29 29 33 33 32 34 36 33 30 36 30 26 25 23
31 32 30 28 27 27 27 27 26 23 19 23 28 37 41 43 47 49 41 36 20 19 20 13 17 22 22 26 29 30 29 31 34 34 35 36 34 34 29 29 29 27 26
28 28 26 26 27 28 28 26 26 25 24 23 23 24 28 30 33 36 38 35 29 23 19 19 20 24 26 27 30 29 33 33 36 36 35 36 35 34 30 30 30 31 28
29 31 32 29 27 25 25 25 24 24 23 22 22 24 23 24 23 24 28 28 28 28 25 21 22 25 27 28 29 31 32 33 34 36 35 36 35 34 31 32 32 32 29
27 27 28 26 27 25 23 24 22 23 22 22 25 28 28 24 22 24 24 26 28 27 27 25 25 29 30 31 31 32 33 34 36 38 37 37 34 36 33 33 32 33 30
24 25 24 24 23 22 23 23 23 22 24 23 25 24 27 31 25 24 25 27 30 33 32 32 31 32 34 34 36 35 37 36 37 39 38 35 35 33 32 31 33 33 32
23 24 24 23 22 22 21 22 21 22 23 23 24 20 23 23 22 23 24 27 28 30 32 34 34 33 35 36 39 42 42 41 41 42 39 37 38 34 31 33 34 31 32
21 22 22 20 19 19 18 19 20 24 22 22 19 19 18 17 17 20 21 24 28 30 33 37 38 38 38 37 39 40 43 43 42 41 38 37 34 35 30 32 34 29 30
22 13 12 19 15 16 16 18 17 15 12 10 9 10 11 14 15 17 20 24 27 30 31 35 35 40 45 43 40 39 40 42 42 42 38 38 32 35 33 33 33 29 29
26 22 18 16 10 6 4 3 2 3 5 6 8 11 12 14 16 19 20 22 24 27 31 32 36 40 43 42 43 43 46 42 44 42 37 35 35 33 33 33 32 28 34
Wind_Direction
192 197 208 206 211 219 200 205 203 202 197 211 215 225 238 248 254 259 265 272 277 273 263 265 268 267 267 267 261 257 258 235 214 205 168 177 179 184 169 179 175 178 173
243 221 215 216 215 214 215 209 212 212 215 216 222 229 234 247 254 255 259 263 274 280 267 260 262 267 270 266 264 256 258 256 222 175 184 175 185 180 173 177 171 185 186
274 273 241 221 215 216 216 214 213 213 213 217 226 230 232 240 250 253 256 262 268 278 284 285 254 262 263 265 256 258 256 256 249 182 173 173 167 174 177 180 172 177 182
304 280 274 246 220 212 210 211 214 219 226 227 230 233 236 242 248 253 257 264 267 273 278 282 286 261 262 259 260 252 255 252 241 180 170 169 162 173 174 168 180 179 167
353 344 337 294 234 214 211 216 217 222 229 235 239 240 238 240 242 248 252 254 258 261 272 281 283 277 259 255 253 248 250 253 237 163 167 172 168 168 174 176 176 165 183
329 322 319 315 293 240 230 227 235 234 235 237 243 246 248 246 242 247 249 248 253 256 263 271 273 279 279 280 261 255 249 250 196 164 171 177 188 181 177 174 176 167 175
312 304 296 295 291 291 280 261 236 234 242 244 247 247 248 248 249 249 254 252 254 255 257 263 269 267 267 271 267 258 250 242 228 194 184 191 186 184 176 175 187 190 185
283 280 278 279 279 279 276 270 264 258 251 247 246 246 246 247 247 249 248 254 256 256 253 258 262 264 261 260 267 269 257 251 229 207 200 196 190 182 187 190 189 188 185
280 276 274 273 267 267 268 265 260 253 249 248 248 247 247 248 247 249 249 248 247 251 254 259 261 259 257 253 255 259 254 251 240 219 211 210 197 195 196 183 180 169 154
281 282 281 281 282 276 272 270 270 269 265 257 252 249 248 248 248 250 244 242 246 251 257 259 259 259 256 252 248 243 240 225 222 204 203 197 197 194 201 195 175 163 154
280 282 282 285 288 289 295 291 280 278 273 279 265 252 249 252 252 248 245 238 237 244 251 258 258 260 261 252 245 242 232 220 220 209 194 185 187 194 190 202 186 176 172
294 291 288 285 284 283 283 283 284 281 281 267 260 265 250 246 250 254 251 246 243 244 246 250 261 262 281 245 239 245 235 216 216 195 185 180 182 188 193 184 189 188 193
282 280 281 274 269 267 267 269 271 268 270 263 265 255 251 244 245 252 248 244 251 252 251 252 252 253 263 266 248 246 224 201 184 176 176 168 172 172 171 174 188 194 209
279 273 271 269 269 266 264 261 259 257 255 259 256 255 258 253 239 235 241 244 248 250 252 249 246 245 249 254 252 231 205 185 177 176 168 158 156 157 161 167 163 159 143
273 268 265 263 262 261 258 257 256 254 252 250 253 255 251 257 254 243 255 252 279 274 240 231 230 232 231 226 226 202 182 176 172 165 157 156 153 154 155 168 160 146 150
269 266 261 259 259 258 258 261 257 256 255 254 255 252 260 263 259 263 237 248 288 322 214 198 209 219 210 191 190 181 176 170 169 164 160 157 159 154 151 163 164 155 153
260 261 260 257 255 254 252 253 260 260 255 254 255 255 256 256 258 258 272 275 279 282 262 217 200 201 198 182 181 181 178 175 169 166 163 160 160 162 158 167 167 163 161
263 260 259 259 254 250 247 247 249 252 254 252 251 251 253 253 252 249 253 263 263 252 247 262 211 196 194 183 180 180 175 172 171 168 167 163 161 158 167 173 172 168 164
271 265 261 258 255 250 245 244 243 244 247 251 255 255 251 250 245 242 243 240 241 236 228 228 226 195 189 184 180 177 173 174 170 170 169 164 162 162 179 179 171 166 168
271 265 260 258 258 254 249 240 238 240 240 243 245 245 245 237 230 229 230 229 231 229 225 214 218 200 187 182 179 176 173 171 169 170 165 165 162 171 183 176 168 165 167
269 266 258 251 249 245 242 243 236 233 236 239 241 241 237 227 228 223 218 214 215 215 217 213 213 197 186 181 177 175 171 168 167 167 164 162 168 174 186 174 168 162 166
273 267 260 250 243 237 235 234 235 237 231 235 244 245 241 234 230 220 219 217 215 212 205 199 194 187 185 178 174 172 168 168 166 166 163 166 170 180 183 169 164 164 168
272 261 256 251 244 238 229 231 232 233 239 241 243 240 222 221 216 212 208 205 201 200 196 193 191 185 184 179 177 173 172 170 170 166 165 168 173 186 175 166 164 168 170
277 259 251 245 231 227 224 228 229 233 233 236 239 209 213 212 208 211 208 206 198 195 189 189 190 185 178 176 178 178 178 171 169 166 164 168 180 174 169 165 170 170 168
329 323 239 232 220 211 221 228 240 229 198 191 190 204 207 201 211 219 212 203 188 180 179 177 179 179 176 172 172 172 173 168 161 160 164 179 175 168 166 167 171 166 161
360 5 24 29 47 64 80 78 104 144 170 176 190 196 194 195 186 182 184 178 173 173 167 170 169 168 168 167 165 167 165 161 158 161 173 176 168 166 168 166 169 162 158